Nantucket, MA

5:04 PM EDT on May 29, 2017 (GMT -0400)
Nantucket Memorial

Weather History for KACK - December, 2012

Change the Weather History Date:

Friday, December 7, 2012

  Actual Average Record
Temperature  
Mean Temperature 38 °F -  
Max Temperature 48 °F 46 °F 61 °F (1998)
Min Temperature 28 °F 30 °F 17 °F (2002)
Degree Days  
Heating Degree Days 27    
Moisture  
Dew Point 39 °F    
Average Humidity 85    
Maximum Humidity 100    
Minimum Humidity 71    
Precipitation  
Precipitation 0.00 in - - ()
Sea Level Pressure  
Sea Level Pressure 30.18 in    
Wind  
Wind Speed 5 mph (South)    
Max Wind Speed 14 mph    
Max Gust Speed -    
Visibility 10 miles    
Events      
Averages and records for this station are not official NWS values.
T = Trace of Precipitation, MM = Missing Value Source: NWS Daily Summary

Daily Weather History Graph

Daily Weather History Graph

Search for Another Location

Airport or City:

Trip Planner

Search our weather history database for the weather conditions in past years. The results will help you decide how hot, cold, wet, or windy it might be!

Date:

Astronomy

Dec. 07, 2012 Rise Set
Actual Time 6:52 AM EST 4:11 PM EST
Civil Twilight 6:21 AM EST 4:42 PM EST
Nautical Twilight 5:47 AM EST 5:16 PM EST
Astronomical Twilight 5:13 AM EST 5:50 PM EST
Moon 12:05 AM EST (12/7) 12:09 PM EST (12/7)
Length of Visible Light 10h 20m
Length of Day
9h 18m
Last Quarter, 39% of the Moon is Illuminated
Dec 7
Last Quarter
Dec 13
New
Dec 20
First Quarter
Dec 28
Full
Jan 4
Last Quarter

Hourly Weather History & Observations

Time (EST) Temp. Windchill Dew Point Humidity Pressure Visibility Wind Dir Wind Speed Gust Speed Precip Events Conditions
12:53 AM 32.0 °F - 26.1 °F 79% 30.31 in 10.0 mi Calm Calm - N/A   Mostly Cloudy
1:10 AM 30.2 °F - 26.6 °F 86% 30.31 in 10.0 mi Calm Calm - N/A   Scattered Clouds
1:32 AM 30.2 °F - 24.8 °F 80% 30.31 in 10.0 mi Calm Calm - N/A   Mostly Cloudy
1:48 AM 28.4 °F - 24.8 °F 86% 30.31 in 10.0 mi Calm Calm - N/A   Scattered Clouds
1:53 AM 30.0 °F 26.5 °F 25.0 °F 82% 30.31 in 10.0 mi South 3.5 mph - N/A   Partly Cloudy
2:53 AM 35.1 °F 30.1 °F 28.9 °F 78% 30.31 in 10.0 mi SW 5.8 mph - N/A   Mostly Cloudy
3:53 AM 37.0 °F 33.3 °F 30.0 °F 76% 30.28 in 10.0 mi SSW 4.6 mph - N/A   Overcast
4:53 AM 39.0 °F 33.4 °F 30.9 °F 73% 30.27 in 10.0 mi SW 8.1 mph - N/A   Overcast
5:53 AM 39.0 °F 34.0 °F 32.0 °F 76% 30.27 in 10.0 mi South 6.9 mph - N/A   Overcast
7:53 AM 41.0 °F 35.8 °F 34.0 °F 76% 30.26 in 10.0 mi SSE 8.1 mph - N/A   Scattered Clouds
8:53 AM 43.0 °F 37.7 °F 35.1 °F 74% 30.25 in 10.0 mi SE 9.2 mph - N/A   Clear
9:53 AM 46.0 °F 40.6 °F 37.0 °F 71% 30.25 in 10.0 mi SE 11.5 mph - N/A   Partly Cloudy
10:53 AM 46.0 °F 39.9 °F 37.0 °F 71% 30.23 in 10.0 mi SSE 13.8 mph - N/A   Overcast
11:53 AM 46.9 °F - 37.9 °F 71% 30.19 in 10.0 mi SSE 13.8 mph - N/A   Partly Cloudy
12:53 PM 46.9 °F - 39.9 °F 77% 30.17 in 10.0 mi SSE 12.7 mph - N/A   Clear
1:53 PM 48.0 °F - 42.1 °F 80% 30.14 in 10.0 mi SSE 10.4 mph - N/A   Clear
2:53 PM 46.9 °F - 43.0 °F 86% 30.14 in 10.0 mi SSE 9.2 mph - N/A   Partly Cloudy
3:53 PM 46.9 °F - 44.1 °F 90% 30.12 in 10.0 mi SSE 6.9 mph - N/A   Mostly Cloudy
4:53 PM 46.9 °F - 44.1 °F 90% 30.11 in 10.0 mi SSE 8.1 mph - N/A   Overcast
5:53 PM 48.0 °F - 45.0 °F 89% 30.10 in 10.0 mi SSE 5.8 mph - N/A   Overcast
6:22 PM 48.2 °F - 46.4 °F 93% 30.10 in 10.0 mi South 5.8 mph - N/A   Overcast
6:53 PM 48.0 °F - 46.0 °F 93% 30.11 in 10.0 mi South 5.8 mph - N/A   Overcast
8:26 PM 48.2 °F - 46.4 °F 93% 30.10 in 10.0 mi SSW 4.6 mph - 0.00 in   Overcast
8:53 PM 48.0 °F - 46.0 °F 93% 30.09 in 10.0 mi SSW 5.8 mph - 0.00 in   Overcast
9:04 PM 48.2 °F - 46.4 °F 93% 30.09 in 10.0 mi SSW 5.8 mph - N/A   Overcast
9:30 PM 48.2 °F - 46.4 °F 93% 30.09 in 10.0 mi SSW 3.5 mph - N/A   Overcast
9:53 PM 48.0 °F - 46.9 °F 96% 30.09 in 10.0 mi SW 8.1 mph - N/A   Overcast
10:19 PM 48.2 °F - 46.4 °F 93% 30.08 in 10.0 mi WSW 8.1 mph - N/A   Overcast
10:53 PM 48.0 °F - 46.9 °F 96% 30.08 in 10.0 mi WSW 5.8 mph - N/A   Overcast
11:20 PM 48.2 °F - 48.2 °F 100% 30.07 in 10.0 mi West 3.5 mph - N/A   Overcast
11:32 PM 48.2 °F - 48.2 °F 100% 30.07 in 10.0 mi West 3.5 mph - N/A   Overcast
11:53 PM 48.9 °F - 46.9 °F 93% 30.07 in 10.0 mi Calm Calm - N/A   Overcast